Current Version              Previous Version:    01  02  03  04  05  06  07  08  09  10  11  12  13  14  15  16  17  18  19  20  21  22  23  24  25  26  27  28  29  30  
   31  32  33  34  35  36  37  38  39  40  41  42  43  44  45  46  47  48  49  50  51  52  53  54  55  56  57  58  59  60  

[Printable]
780
ASUS44 KEWX 301110
RWRTX
SOUTH TEXAS REGIONAL WEATHER ROUNDUP
NATIONAL WEATHER SERVICE AUSTIN/SAN ANTONIO TX
600 AM CDT THU OCT 30 2014

NOTE: "FAIR" INDICATED FEW OR NO CLOUDS BELOW 12,000 FEET WITH NO
SIGNIFICANT WEATHER AND/OR OBSTRUCTIONS TO VISIBILITY.

* - THESE STATIONS ARE NOT NWS OR FAA STATIONS...AND ARE NOT SUBJECT
    TO NWS AND FAA QUALITY CONTROL.

TXZ171-172-183>190-301200-
TEXAS HILL COUNTRY AND EDWARDS PLATEAU

CITY           SKY/WX    TMP DP  RH WIND       PRES   REMARKS
JUNCTION       CLEAR     59  56  89 NE6       30.12S
*LLANO         PTCLDY    57  55  94 CALM      30.14S
BURNET         CLOUDY    62  57  83 CALM      30.13S
*HORSESHOE BAY CLOUDY    60  60 100 CALM      30.11S
*KERRVILLE     MOCLDY    61  59  93 CALM      30.12S
*FREDERICKSBRG CLOUDY    60  58  94 CALM      30.11F
*ROCKSPRINGS   CLEAR     61  59  94 MISG      30.14S FOG
*BOERNE STAGE  PTCLDY    57  54  88 CALM      30.13S
*CASTROVILLE   CLOUDY    67  62  84 CALM      30.12R
HONDO          MOCLDY    59  59 100 NE6       30.12R
*UVALDE        CLOUDY    65  63  92 NE7       30.10R
DEL RIO        CLEAR     67  63  87 E7        30.06S
LAUGHLIN AFB   CLEAR     66  62  89 E10       30.07S
CARRIZO SPRGS  CLEAR     63  61  94 CALM      30.07R
$$

TXZ173-191>194-202-209-217>225-228-301200-
CENTRAL AND SOUTH CENTRAL TEXAS

CITY           SKY/WX    TMP DP  RH WIND       PRES   REMARKS
GEORGETOWN     CLOUDY    63  55  77 CALM      30.11S
AUSTIN/BERGSTM MOCLDY    62  60  93 NE5       30.10S
AUSTIN/MABRY   CLOUDY    64  60  87 CALM      30.12S
*AUSTIN/EXEC   CLOUDY    59  57  94 CALM      30.11S
*LAGO VISTA    CLOUDY    64  58  81 SE3       30.12S
SAN MARCOS     CLOUDY    64  57  77 CALM      30.12R
NEW BRAUNFELS  CLOUDY    66  61  84 E5        30.09S
RANDOLPH AFB   CLOUDY    66  63  88 E8        30.10S
PT SAN ANTONIO MOCLDY    68  63  83 NE3       30.08S
SAN ANTONIO    MOCLDY    67  63  87 E6        30.10S
STINSON FIELD  MOCLDY    67  63  87 NE6       30.08S
*PLEASANTON    MOCLDY    64  62  94 CALM      30.09R FOG
*LA GRANGE     CLEAR     62  62  98 CALM      30.09R
*GIDDINGS      FOG       58  57  96 CALM      30.14S VSB 1/2
*GONZALES      CLOUDY   N/A N/A N/A CALM      30.09S HAZE
$$

TXZ163>164-176>182-195>201-210>213-226-227-235-301200-
SOUTHEAST TEXAS

CITY           SKY/WX    TMP DP  RH WIND       PRES   REMARKS
COLLEGE STN    CLEAR     57  52  83 E3        30.11S
*BRYAN         CLEAR     52  51  95 NE3       30.13R
*CALDWELL      CLEAR     55  55 100 CALM      30.15R
*CROCKETT      CLEAR     48  48 100 CALM      30.16S
*BRENHAM       CLEAR     57  56  97 CALM      30.11S
HUNTSVILLE     CLEAR     50  48  93 CALM      30.12S
CONROE         CLEAR     51  50  96 CALM      30.12S
HOUSTON BUSH   PTCLDY    56  53  90 NE6       30.11R
HOUSTON HOBBY  PTCLDY    62  53  72 NE6       30.09S
*HOUSTON SW AP CLEAR     57  53  85 N6        30.09S
PEARLAND       MOCLDY    63  56  78 NE7       30.10S
HOUSTON HOOKS  CLEAR     59  53  80 E5        30.11S
ELLINGTON FLD  PTCLDY    63  54  72 NE5       30.10S
SUGAR LAND     CLEAR     62  56  80 NE7       30.09S
*HOUSTON EXEC  MOCLDY    57 N/A N/A NE5       30.11S
*CLEVELAND MUN CLEAR     51  51  99 CALM      30.13S
*WHARTON       CLEAR     61  59  93 CALM      30.09S
*COLUMBUS      FAIR      60  58  92 NE3       30.09S
$$

TXZ214>216-236>238-301200-
THE UPPER TEXAS COAST

CITY           SKY/WX    TMP DP  RH WIND       PRES   REMARKS
*ORANGE        CLEAR     56  49  78 N5        30.12R
PORT ARTHUR    CLEAR     58  49  72 MISG      30.10R
GALVESTON      CLOUDY    68  60  75 NE8       30.08S
ANGLETON       PTCLDY    61  59  93 NE7       30.08R
*BAY CITY        N/A     67  64  90 NE7       30.07S
PALACIOS       CLEAR     65  64  97 NE7       30.07R
$$

TXZ229>234-239>247-301200-
TEXAS COASTAL BEND AND RIO GRANDE PLAINS

CITY           SKY/WX    TMP DP  RH WIND       PRES   REMARKS
VICTORIA       MOCLDY    65  62  90 NE6       30.08S
*BEEVILLE      CLEAR     67  66  99 NE6       30.07R FOG
ROCKPORT       CLEAR     72  70  93 NE6       30.04F FOG
*PORT ARANSAS  PTCLDY    73  71  93 NE5       30.04S
*PORT LAVACA   CLOUDY    67  65  93 NE8       30.08R
*INGLESIDE     CLEAR     69  67  94 NE6       30.05R FOG
CORPUS CHRISTI PTCLDY    71  69  93 NE8       30.05S
CORPUS NAS     MOCLDY    74  74 100 NE9       30.04S
*ROBSTOWN      NOT AVBL
ALICE          CLEAR     65  63  93 NE7       30.05S
KINGSVILLE NAS CLEAR     65  64  97 N5        30.05S
COTULLA        CLEAR     67  64  90 E6        30.07S
*FAITH RANCH   CLEAR     64  61  88 E5        30.06S
LAREDO         CLEAR     68  65  90 CALM      30.07S
$$

TXZ248>255-301200-
DEEP SOUTH TEXAS

CITY           SKY/WX    TMP DP  RH WIND       PRES   REMARKS
BROWNSVILLE    CLEAR     68  67  96 N3        30.03S FOG
PORT ISABEL    CLEAR     67  65  93 NW3       30.03S
*SOUTH PADRE     N/A    N/A N/A N/A CALM      30.02S
HARLINGEN      CLEAR     66  65  96 CALM      30.03R
*HEBBRONVILLE    N/A     61  59  93 NE6       30.07R VSB 3/4
MCALLEN        CLEAR     72  68  87 NE7       30.04R
*WESLACO       CLEAR     67  64  89 CALM      30.03S FOG
FALFURRIAS     CLEAR     63  63  97 CALM      30.04F
EDINBURG       CLEAR     67  65  91 CALM      30.04S FOG
*ZAPATA        NOT AVBL
$$

TXZ213>215-236>238-242>244-246-247-251-254-255-301200-
CMAN STATIONS

STATION/POSITION TIME  TEMP    WIND        PRES    WAVE
                       AIR SEA DIR/SP/G            HT/PER
                 (UTC) (F)     (DEG/KT/KT) (MB)    (FT/S)
SABINE PASS      1100   61 76   50/  7/ 10 1018.9
SEA RIM ST PARK  1100   60      40/  6/  7 1019.6
NORTH JETTY/GLS  1100   68 76   80/ 15/ 17   N/A
EAGLE POINT      1100   67 75   80/ 16/ 18 1018.8
MORGANS POINT    1100   63      60/ 10/ 11 1018.9
MISSION/ARANSAS  1000           40/  9     1019.0
PORT O`CONNOR    1100           50/ 10/ 13   N/A
PORT ARANSAS     1100   76 79   20/  8/  9 1018.0
MALAQUITE BEACH  1100   74 80  350/  6/  7 1016.6
BAFFIN BAY       1100   73 83  360/  5/  5 1017.2
PORT ISABEL      1100   71 78  320/  2/  2 1016.7
$$

GMZ080-GMZ150>470-301200-
OFFSHORE BUOY REPORTS

STATION/POSITION TIME  TEMP    WIND        PRES    WAVE
                       AIR SEA DIR/SP/G            HT/PER
                 (UTC) (F)     (DEG/KT/KT) (MB)    (FT/S)
20 E GALVESTON   1100   71 77   60/ 16/ 17 1017.8    3/ 5
90 E PT ARANSAS  1100   76 79   30/ 10/ 12 1017.6    2/ 6
35 NE PT MANSFLD 1100   78 80  250/  2/  4 1016.7    2/ 6
200 E PT ISABEL  1100   78 80   20/  6/  8 1016.3    2/ 7
$$